Zurück zum Katalog

STARLINK-33811

AktivKommunikationVLEO
NORAD 63504·PAYLOAD·🇺🇸 United States

Gestartet Apr 7, 2025 von Vandenberg Space Force Base

Loading…

Nächste Überflüge (nächste 24 Stunden)

TLE

AktuellSource: CelesTrak SupGP

Epoche: Sep 14, 2026, 13:54 UTC

1 63504C 25071M   26257.57965278 -.00014114  00000+0 -41718-3 0  2577
2 63504  53.1580 341.0672 0001378  89.8883 166.9414 15.34383369    15

Verfolge STARLINK-33811 in Echtzeit mit AllMySat

Download on the App Store